Back to catalog

STARLINK-2253

AliveCommunicationsVLEO
NORAD 48596·PAYLOAD·🇺🇸 United States

Launched May 15, 2021 from Cape Canaveral Space Force Station

Loading…

Next Passes (next 24 hours)

TLE

FreshSource: CelesTrak SupGP

Epoch: Sep 14, 2026, 21:52 UTC

1 48596C 21041AV  26257.91159722 -.00025307  00000+0 -81377-3 0  2572
2 48596  53.1605 338.9532 0001105  88.4111 318.7640 15.31716823    14

Track STARLINK-2253 in real time with AllMySat

Download on the App Store